Time,TemperatureF,DewpointF,PressureIn,WindDirection,WindDirectionDegrees,WindSpeedMPH,WindSpeedGustMPH,Humidity,HourlyPrecipIn,Conditions,Clouds,dailyrainin,SoftwareType,DateUTC
2013-07-30 00:03:00,60.0,-99.9,30.17,North,0,0.0,5.0,-999,-99.99,,,-99.99,,2013-07-30 05:03:00,
2013-07-30 00:13:00,60.0,-99.9,30.17,North,0,0.0,5.0,-999,-99.99,,,-99.99,,2013-07-30 05:13:00,
2013-07-30 00:23:00,60.0,-99.9,30.17,North,0,0.0,5.0,-999,-99.99,,,-99.99,,2013-07-30 05:23:00,
2013-07-30 00:33:00,60.0,-99.9,30.17,North,0,0.0,5.0,-999,-99.99,,,-99.99,,2013-07-30 05:33:00,
2013-07-30 00:40:00,58.0,-99.9,30.17,South,170,2.0,5.0,-999,-99.99,,,-99.99,,2013-07-30 05:40:00,
2013-07-30 01:03:00,58.0,-99.9,30.17,South,170,2.0,5.0,-999,-99.99,,,-99.99,,2013-07-30 06:03:00,
2013-07-30 01:13:00,58.0,-99.9,30.17,South,170,2.0,5.0,-999,-99.99,,,-99.99,,2013-07-30 06:13:00,
2013-07-30 01:23:00,58.0,-99.9,30.17,South,170,2.0,5.0,-999,-99.99,,,-99.99,,2013-07-30 06:23:00,
2013-07-30 01:33:00,58.0,-99.9,30.17,South,170,2.0,5.0,-999,-99.99,,,-99.99,,2013-07-30 06:33:00,
2013-07-30 01:40:00,58.0,-99.9,30.16,South,190,2.0,5.0,-999,-99.99,,,-99.99,,2013-07-30 06:40:00,
2013-07-30 02:03:00,58.0,-99.9,30.16,South,190,2.0,5.0,-999,-99.99,,,-99.99,,2013-07-30 07:03:00,
2013-07-30 02:13:00,58.0,-99.9,30.16,South,190,2.0,5.0,-999,-99.99,,,-99.99,,2013-07-30 07:13:00,
2013-07-30 02:23:00,58.0,-99.9,30.16,South,190,2.0,5.0,-999,-99.99,,,-99.99,,2013-07-30 07:23:00,
2013-07-30 02:33:00,58.0,-99.9,30.16,South,190,2.0,5.0,-999,-99.99,,,-99.99,,2013-07-30 07:33:00,
2013-07-30 02:40:00,56.0,-99.9,30.15,North,0,0.0,2.0,-999,-99.99,,,-99.99,,2013-07-30 07:40:00,
2013-07-30 03:03:00,56.0,-99.9,30.15,North,0,0.0,2.0,-999,-99.99,,,-99.99,,2013-07-30 08:03:00,
2013-07-30 03:13:00,56.0,-99.9,30.15,North,0,0.0,2.0,-999,-99.99,,,-99.99,,2013-07-30 08:13:00,
2013-07-30 03:23:00,56.0,-99.9,30.15,North,0,0.0,2.0,-999,-99.99,,,-99.99,,2013-07-30 08:23:00,
2013-07-30 03:33:00,56.0,-99.9,30.15,North,0,0.0,2.0,-999,-99.99,,,-99.99,,2013-07-30 08:33:00,
2013-07-30 03:40:00,56.0,-99.9,30.16,North,0,0.0,3.0,-999,-99.99,,,-99.99,,2013-07-30 08:40:00,
2013-07-30 04:03:00,56.0,-99.9,30.16,North,0,0.0,3.0,-999,-99.99,,,-99.99,,2013-07-30 09:03:00,
2013-07-30 04:13:00,56.0,-99.9,30.16,North,0,0.0,3.0,-999,-99.99,,,-99.99,,2013-07-30 09:13:00,
2013-07-30 04:23:00,56.0,-99.9,30.16,North,0,0.0,3.0,-999,-99.99,,,-99.99,,2013-07-30 09:23:00,
2013-07-30 04:33:00,56.0,-99.9,30.16,North,0,0.0,3.0,-999,-99.99,,,-99.99,,2013-07-30 09:33:00,
2013-07-30 04:40:00,57.0,-99.9,30.16,SSE,160,2.0,5.0,-999,-99.99,,,-99.99,,2013-07-30 09:40:00,
2013-07-30 05:03:00,57.0,-99.9,30.16,SSE,160,2.0,5.0,-999,-99.99,,,-99.99,,2013-07-30 10:03:00,
2013-07-30 05:12:00,57.0,-99.9,30.16,SSE,160,2.0,5.0,-999,-99.99,,,-99.99,,2013-07-30 10:12:00,
2013-07-30 05:23:00,57.0,-99.9,30.16,SSE,160,2.0,5.0,-999,-99.99,,,-99.99,,2013-07-30 10:23:00,
2013-07-30 05:33:00,57.0,-99.9,30.16,SSE,160,2.0,5.0,-999,-99.99,,,-99.99,,2013-07-30 10:33:00,
2013-07-30 05:40:00,57.0,-99.9,30.18,South,180,2.0,5.0,-999,-99.99,,,-99.99,,2013-07-30 10:40:00,
2013-07-30 06:02:00,57.0,-99.9,30.18,South,180,2.0,5.0,-999,-99.99,,,-99.99,,2013-07-30 11:02:00,
2013-07-30 06:12:00,57.0,-99.9,30.18,South,180,2.0,5.0,-999,-99.99,,,-99.99,,2013-07-30 11:12:00,
2013-07-30 06:22:00,57.0,-99.9,30.18,South,180,2.0,5.0,-999,-99.99,,,-99.99,,2013-07-30 11:22:00,
2013-07-30 06:33:00,57.0,-99.9,30.18,South,180,2.0,5.0,-999,-99.99,,,-99.99,,2013-07-30 11:33:00,
2013-07-30 06:40:00,59.0,-99.9,30.18,SSW,200,3.0,6.0,-999,-99.99,,,-99.99,,2013-07-30 11:40:00,
2013-07-30 07:12:00,59.0,-99.9,30.18,SSW,200,3.0,6.0,-999,-99.99,,,-99.99,,2013-07-30 12:12:00,
2013-07-30 07:22:00,59.0,-99.9,30.18,SSW,200,3.0,6.0,-999,-99.99,,,-99.99,,2013-07-30 12:22:00,
2013-07-30 07:33:00,59.0,-99.9,30.18,SSW,200,3.0,6.0,-999,-99.99,,,-99.99,,2013-07-30 12:33:00,
2013-07-30 07:40:00,60.0,-99.9,30.19,WSW,240,1.0,5.0,-999,-99.99,,,-99.99,,2013-07-30 12:40:00,
2013-07-30 08:12:00,60.0,-99.9,30.19,WSW,240,1.0,5.0,-999,-99.99,,,-99.99,,2013-07-30 13:12:00,
2013-07-30 08:22:00,60.0,-99.9,30.19,WSW,240,1.0,5.0,-999,-99.99,,,-99.99,,2013-07-30 13:22:00,
2013-07-30 08:33:00,60.0,-99.9,30.19,WSW,240,1.0,5.0,-999,-99.99,,,-99.99,,2013-07-30 13:33:00,
2013-07-30 08:40:00,61.0,-99.9,30.19,North,0,0.0,2.0,-999,-99.99,,,-99.99,,2013-07-30 13:40:00,
2013-07-30 09:03:00,61.0,-99.9,30.19,North,0,0.0,2.0,-999,-99.99,,,-99.99,,2013-07-30 14:03:00,
2013-07-30 09:12:00,61.0,-99.9,30.19,North,0,0.0,2.0,-999,-99.99,,,-99.99,,2013-07-30 14:12:00,
2013-07-30 09:22:00,61.0,-99.9,30.19,North,0,0.0,2.0,-999,-99.99,,,-99.99,,2013-07-30 14:22:00,
2013-07-30 09:33:00,61.0,-99.9,30.19,North,0,0.0,2.0,-999,-99.99,,,-99.99,,2013-07-30 14:33:00,
2013-07-30 09:40:00,63.0,-99.9,30.19,North,0,0.0,1.0,-999,-99.99,,,-99.99,,2013-07-30 14:40:00,
2013-07-30 10:03:00,63.0,-99.9,30.19,North,0,0.0,1.0,-999,-99.99,,,-99.99,,2013-07-30 15:03:00,
2013-07-30 10:12:00,63.0,-99.9,30.19,North,0,0.0,1.0,-999,-99.99,,,-99.99,,2013-07-30 15:12:00,
2013-07-30 10:23:00,63.0,-99.9,30.19,North,0,0.0,1.0,-999,-99.99,,,-99.99,,2013-07-30 15:23:00,
2013-07-30 10:33:00,63.0,-99.9,30.19,North,0,0.0,1.0,-999,-99.99,,,-99.99,,2013-07-30 15:33:00,
2013-07-30 10:40:00,63.0,-99.9,30.20,SE,140,3.0,5.0,-999,-99.99,,,-99.99,,2013-07-30 15:40:00,
2013-07-30 11:03:00,63.0,-99.9,30.20,SE,140,3.0,5.0,-999,-99.99,,,-99.99,,2013-07-30 16:03:00,
2013-07-30 11:12:00,63.0,-99.9,30.20,SE,140,3.0,5.0,-999,-99.99,,,-99.99,,2013-07-30 16:12:00,
2013-07-30 11:23:00,63.0,-99.9,30.20,SE,140,3.0,5.0,-999,-99.99,,,-99.99,,2013-07-30 16:23:00,
2013-07-30 11:33:00,63.0,-99.9,30.20,SE,140,3.0,5.0,-999,-99.99,,,-99.99,,2013-07-30 16:33:00,
2013-07-30 11:40:00,64.0,-99.9,30.19,SE,130,8.0,10.0,-999,-99.99,,,-99.99,,2013-07-30 16:40:00,
2013-07-30 12:13:00,64.0,-99.9,30.19,SE,130,8.0,10.0,-999,-99.99,,,-99.99,,2013-07-30 17:13:00,
2013-07-30 12:22:00,64.0,-99.9,30.19,SE,130,8.0,10.0,-999,-99.99,,,-99.99,,2013-07-30 17:22:00,
2013-07-30 12:32:00,64.0,-99.9,30.19,SE,130,8.0,10.0,-999,-99.99,,,-99.99,,2013-07-30 17:32:00,
2013-07-30 12:40:00,65.0,-99.9,30.18,SE,140,10.0,13.0,-999,-99.99,,,-99.99,,2013-07-30 17:40:00,
2013-07-30 13:12:00,65.0,-99.9,30.18,SE,140,10.0,13.0,-999,-99.99,,,-99.99,,2013-07-30 18:12:00,
2013-07-30 13:33:00,65.0,-99.9,30.18,SE,140,10.0,13.0,-999,-99.99,,,-99.99,,2013-07-30 18:33:00,
2013-07-30 13:40:00,65.0,-99.9,30.16,SSE,150,13.0,17.0,-999,-99.99,,,-99.99,,2013-07-30 18:40:00,
2013-07-30 14:03:00,65.0,-99.9,30.16,SSE,150,13.0,17.0,-999,-99.99,,,-99.99,,2013-07-30 19:03:00,
2013-07-30 14:12:00,65.0,-99.9,30.16,SSE,150,13.0,17.0,-999,-99.99,,,-99.99,,2013-07-30 19:12:00,
2013-07-30 14:23:00,65.0,-99.9,30.16,SSE,150,13.0,17.0,-999,-99.99,,,-99.99,,2013-07-30 19:23:00,
2013-07-30 14:33:00,65.0,-99.9,30.16,SSE,150,13.0,17.0,-999,-99.99,,,-99.99,,2013-07-30 19:33:00,
2013-07-30 14:40:00,65.0,-99.9,30.14,SE,140,14.0,17.0,-999,-99.99,,,-99.99,,2013-07-30 19:40:00,
2013-07-30 15:13:00,65.0,-99.9,30.14,SE,140,14.0,17.0,-999,-99.99,,,-99.99,,2013-07-30 20:13:00,
2013-07-30 15:22:00,65.0,-99.9,30.14,SE,140,14.0,17.0,-999,-99.99,,,-99.99,,2013-07-30 20:22:00,
2013-07-30 15:33:00,65.0,-99.9,30.14,SE,140,14.0,17.0,-999,-99.99,,,-99.99,,2013-07-30 20:33:00,
2013-07-30 16:03:00,65.0,-99.9,30.13,SSE,150,10.0,16.0,-999,-99.99,,,-99.99,,2013-07-30 21:03:00,
2013-07-30 16:22:00,65.0,-99.9,30.13,SSE,150,10.0,16.0,-999,-99.99,,,-99.99,,2013-07-30 21:22:00,
2013-07-30 16:32:00,65.0,-99.9,30.13,SSE,150,10.0,16.0,-999,-99.99,,,-99.99,,2013-07-30 21:32:00,
2013-07-30 16:40:00,67.0,-99.9,30.12,SSE,160,9.0,14.0,-999,-99.99,,,-99.99,,2013-07-30 21:40:00,
2013-07-30 17:02:00,67.0,-99.9,30.12,SSE,160,9.0,14.0,-999,-99.99,,,-99.99,,2013-07-30 22:02:00,
2013-07-30 17:12:00,67.0,-99.9,30.12,SSE,160,9.0,14.0,-999,-99.99,,,-99.99,,2013-07-30 22:12:00,
2013-07-30 17:22:00,67.0,-99.9,30.12,SSE,160,9.0,14.0,-999,-99.99,,,-99.99,,2013-07-30 22:22:00,
2013-07-30 17:32:00,67.0,-99.9,30.12,SSE,160,9.0,14.0,-999,-99.99,,,-99.99,,2013-07-30 22:32:00,
2013-07-30 17:40:00,67.0,-99.9,30.11,SSE,150,8.0,12.0,-999,-99.99,,,-99.99,,2013-07-30 22:40:00,
2013-07-30 18:02:00,67.0,-99.9,30.11,SSE,150,8.0,12.0,-999,-99.99,,,-99.99,,2013-07-30 23:02:00,
2013-07-30 18:13:00,67.0,-99.9,30.11,SSE,150,8.0,12.0,-999,-99.99,,,-99.99,,2013-07-30 23:13:00,
2013-07-30 18:23:00,67.0,-99.9,30.11,SSE,150,8.0,12.0,-999,-99.99,,,-99.99,,2013-07-30 23:23:00,
2013-07-30 18:30:00,67.0,-99.9,30.11,SSE,160,5.0,8.0,-999,-99.99,,,-99.99,,2013-07-30 23:30:00,
2013-07-30 18:32:00,67.0,-99.9,30.11,SSE,150,8.0,12.0,-999,-99.99,,,-99.99,,2013-07-30 23:32:00,
2013-07-30 19:02:00,67.0,-99.9,30.11,SSE,160,5.0,8.0,-999,-99.99,,,-99.99,,2013-07-31 00:02:00,
2013-07-30 19:12:00,67.0,-99.9,30.11,SSE,160,5.0,8.0,-999,-99.99,,,-99.99,,2013-07-31 00:12:00,
2013-07-30 19:22:00,67.0,-99.9,30.11,SSE,160,5.0,8.0,-999,-99.99,,,-99.99,,2013-07-31 00:22:00,
2013-07-30 19:40:00,66.0,-99.9,30.10,South,180,6.0,9.0,-999,-99.99,,,-99.99,,2013-07-31 00:40:00,
2013-07-30 20:02:00,66.0,-99.9,30.10,South,180,6.0,9.0,-999,-99.99,,,-99.99,,2013-07-31 01:02:00,
2013-07-30 20:12:00,66.0,-99.9,30.10,South,180,6.0,9.0,-999,-99.99,,,-99.99,,2013-07-31 01:12:00,
2013-07-30 20:22:00,66.0,-99.9,30.10,South,180,6.0,9.0,-999,-99.99,,,-99.99,,2013-07-31 01:22:00,
2013-07-30 20:32:00,66.0,-99.9,30.10,South,180,6.0,9.0,-999,-99.99,,,-99.99,,2013-07-31 01:32:00,
2013-07-30 20:40:00,65.0,-99.9,30.10,South,170,5.0,8.0,-999,-99.99,,,-99.99,,2013-07-31 01:40:00,
2013-07-30 21:02:00,65.0,-99.9,30.10,South,170,5.0,8.0,-999,-99.99,,,-99.99,,2013-07-31 02:02:00,
2013-07-30 21:12:00,65.0,-99.9,30.10,South,170,5.0,8.0,-999,-99.99,,,-99.99,,2013-07-31 02:12:00,
2013-07-30 21:22:00,65.0,-99.9,30.10,South,170,5.0,8.0,-999,-99.99,,,-99.99,,2013-07-31 02:22:00,
2013-07-30 21:32:00,65.0,-99.9,30.10,South,170,5.0,8.0,-999,-99.99,,,-99.99,,2013-07-31 02:32:00,
2013-07-30 21:40:00,64.0,-99.9,30.09,South,180,5.0,8.0,-999,-99.99,,,-99.99,,2013-07-31 02:40:00,
2013-07-30 22:12:00,64.0,-99.9,30.09,South,180,5.0,8.0,-999,-99.99,,,-99.99,,2013-07-31 03:12:00,
2013-07-30 22:22:00,64.0,-99.9,30.09,South,180,5.0,8.0,-999,-99.99,,,-99.99,,2013-07-31 03:22:00,
2013-07-30 22:32:00,64.0,-99.9,30.09,South,180,5.0,8.0,-999,-99.99,,,-99.99,,2013-07-31 03:32:00,
2013-07-30 22:40:00,63.0,-99.9,30.09,SSE,160,6.0,8.0,-999,-99.99,,,-99.99,,2013-07-31 03:40:00,
2013-07-30 23:02:00,63.0,-99.9,30.09,SSE,160,6.0,8.0,-999,-99.99,,,-99.99,,2013-07-31 04:02:00,
2013-07-30 23:12:00,63.0,-99.9,30.09,SSE,160,6.0,8.0,-999,-99.99,,,-99.99,,2013-07-31 04:12:00,
2013-07-30 23:22:00,63.0,-99.9,30.09,SSE,160,6.0,8.0,-999,-99.99,,,-99.99,,2013-07-31 04:22:00,
2013-07-30 23:32:00,63.0,-99.9,30.09,SSE,160,6.0,8.0,-999,-99.99,,,-99.99,,2013-07-31 04:32:00,
2013-07-30 23:40:00,64.0,-99.9,30.08,South,170,3.0,6.0,-999,-99.99,,,-99.99,,2013-07-31 04:40:00,